sat.trackr.live / text

‹ back to catalog

XINGCHI-1 02B

NORAD 58498 · 2023-187C

PAYLOAD ACTIVE UNKNOWN

§ Identity

Operator
Country
PRC
Launch date
2023-12-04
Launch site
JSC
Launch vehicle
Mass (kg)
RCS (m²)

External: N2YO · Heavens-Above · Gunter

§ Orbital elements

Epoch: 2026-05-25T04:26:43.211040Z

Period
96.92 min
Inclination
97.9291°
Eccentricity
0.0009950
Mean motion
14.85733202 rev/d
Perigee alt
604.3 km
Apogee alt
618.2 km
Semi-major
6,989.4 km
B*
1.5495e-4
RAAN
229.3494°
Arg perigee
208.9357°
Mean anomaly
151.1307°
Rev number
13,376

§ Raw data

XINGCHI-1 02B1 58498U 23187C   26145.18522235  .00001291  00000+0  15495-3 0  99902 58498  97.9291 229.3494 0009950 208.9357 151.1307 14.85733202133766

JSON: /api/v1/satellites/58498 · /tle

For live sub-satellite position, see the globe view (requires WebGL).

§ Visibility from observer

Set your observer location to see the next 7 days of passes ≥ 10°. The values pass through the URL so the page stays shareable.

No JS? Fill the form by hand. The geolocation button needs JavaScript.